Weather History for Horseshoe Bay, TX

Change the Weather History Date:

Tuesday, August 6, 2013

  Actual Average (KBMQ) Record (KBMQ)
Temperature  
Mean Temperature 86 °F -  
Max Temperature 101 °F 93 °F 102 °F (2011)
Min Temperature 72 °F 71 °F 69 °F (2008)
Cooling Degree Days 22    
Growing Degree Days 36 (Base 50)    
Moisture  
Dew Point 64 °F    
Average Humidity 49    
Maximum Humidity 82    
Minimum Humidity 23    
Precipitation  
Precipitation 0.00 in - - ()
Sea Level Pressure  
Sea Level Pressure 29.91 in    
Wind  
Wind Speed 8 mph (South)    
Max Wind Speed 16 mph    
Max Gust Speed 28 mph    
Visibility 10 miles    
Events      
Averages and records for this station are not official NWS values.
T = Trace of Precipitation, MM = Missing Value Source: NWS Daily Summary

Daily Weather History Graph

Daily Weather History Graph

Search for Another Location

Airport:

Trip Planner

Search our weather history database for the weather conditions in past years. The results will help you decide how hot, cold, wet, or windy it might be!

Date:

Astronomy

Aug. 06, 2013 Rise Set
Actual Time 5:54 AM MDT 7:23 PM MDT
Civil Twilight 5:28 AM MDT 7:49 PM MDT
Nautical Twilight 4:58 AM MDT 8:19 PM MDT
Astronomical Twilight 4:25 AM MDT 8:52 PM MDT
Moon 5:43 AM MDT (8/6) 7:05 PM MDT (8/6)
Length of Visible Light 14h 20m
Length of Day
13h 28m
Waning Crescent, 0% of the Moon is Illuminated
Aug 6
Waning Crescent
Aug 6
New
Aug 14
First Quarter
Aug 20
Full
Aug 28
Last Quarter

Hourly Weather History & Observations

Time (MDT) Temp. Heat Index Dew Point Humidity Pressure Visibility Wind Dir Wind Speed Gust Speed Precip Events Conditions
12:15 AM 82.6 °F 85.7 °F 68.4 °F 62% 29.93 in 10.0 mi South 16.1 mph 21.9 mph N/A   Clear
12:35 AM 81.9 °F 84.8 °F 68.4 °F 63% 29.93 in 10.0 mi South 13.8 mph 21.9 mph N/A   Clear
12:55 AM 81.5 °F 84.2 °F 68.0 °F 63% 29.92 in 10.0 mi South 11.5 mph 21.9 mph N/A   Clear
1:15 AM 81.1 °F 83.5 °F 67.1 °F 62% 29.92 in 10.0 mi South 12.7 mph 20.7 mph N/A   Clear
1:35 AM 80.6 °F 82.9 °F 66.7 °F 63% 29.92 in 10.0 mi South 9.2 mph 19.6 mph N/A   Clear
1:55 AM 79.9 °F - 66.2 °F 63% 29.93 in 10.0 mi South 6.9 mph - N/A   Clear
2:15 AM 79.7 °F - 66.2 °F 63% 29.93 in 10.0 mi Calm Calm - N/A   Clear
2:35 AM 79.2 °F - 66.2 °F 64% 29.93 in 10.0 mi SE 3.5 mph - N/A   Clear
2:55 AM 78.3 °F - 66.2 °F 66% 29.94 in 10.0 mi Calm Calm - N/A   Clear
3:15 AM 77.7 °F - 66.2 °F 68% 29.94 in 10.0 mi SE 3.5 mph - N/A   Clear
3:35 AM 77.4 °F - 66.9 °F 70% 29.94 in 10.0 mi Calm Calm - N/A   Clear
3:55 AM 76.6 °F - 67.1 °F 72% 29.95 in 10.0 mi Calm Calm - N/A   Clear
4:15 AM 76.3 °F - 67.1 °F 73% 29.95 in 10.0 mi Calm Calm - N/A   Clear
4:35 AM 75.7 °F - 67.1 °F 74% 29.95 in 10.0 mi SSE 3.5 mph - N/A   Clear
4:55 AM 75.2 °F - 67.1 °F 76% 29.94 in 10.0 mi SSE 3.5 mph - N/A   Clear
5:15 AM 74.7 °F - 67.1 °F 77% 29.94 in 10.0 mi Calm Calm - N/A   Clear
5:35 AM 73.6 °F - 66.7 °F 79% 29.95 in 10.0 mi Calm Calm - N/A   Clear
5:55 AM 72.9 °F - 66.9 °F 82% 29.95 in 10.0 mi Calm Calm - N/A   Clear
6:15 AM 73.0 °F - 67.1 °F 82% 29.95 in 10.0 mi Calm Calm - N/A   Clear
6:35 AM 73.8 °F - 67.6 °F 81% 29.96 in 10.0 mi Calm Calm - N/A   Clear
6:55 AM 75.4 °F - 68.0 °F 78% 29.97 in 10.0 mi South 3.5 mph - N/A   Clear
7:15 AM 76.6 °F - 68.4 °F 75% 29.97 in 10.0 mi South 6.9 mph - N/A   Mostly Cloudy
7:35 AM 78.4 °F - 69.1 °F 73% 29.97 in 10.0 mi South 5.8 mph - N/A   Scattered Clouds
7:55 AM 80.1 °F 82.9 °F 68.9 °F 69% 29.97 in 10.0 mi South 8.1 mph - N/A   Scattered Clouds
8:15 AM 81.1 °F 84.4 °F 69.1 °F 67% 29.96 in 10.0 mi SSW 6.9 mph 18.4 mph N/A   Clear
8:35 AM 82.8 °F 86.2 °F 68.9 °F 63% 29.96 in 10.0 mi South 11.5 mph 18.4 mph N/A   Clear
8:55 AM 84.2 °F 87.9 °F 69.1 °F 60% 29.96 in 10.0 mi South 9.2 mph 16.1 mph N/A   Clear
9:15 AM 86.0 °F 90.4 °F 69.4 °F 58% 29.96 in 10.0 mi South 9.2 mph - N/A   Clear
9:35 AM 86.5 °F 90.7 °F 68.9 °F 56% 29.97 in 10.0 mi South 10.4 mph 16.1 mph N/A   Clear
9:55 AM 87.6 °F 91.9 °F 69.1 °F 54% 29.97 in 10.0 mi SSW 6.9 mph 19.6 mph N/A   Clear
10:15 AM 88.5 °F 92.7 °F 68.9 °F 52% 29.97 in 10.0 mi South 9.2 mph 17.3 mph N/A   Clear
10:35 AM 90.3 °F 94.7 °F 68.7 °F 49% 29.97 in 10.0 mi SSW 5.8 mph 16.1 mph N/A   Clear
10:55 AM 91.2 °F 95.5 °F 68.4 °F 47% 29.96 in 10.0 mi South 11.5 mph - N/A   Clear
11:15 AM 91.8 °F 95.1 °F 67.3 °F 44% 29.96 in 10.0 mi South 8.1 mph 18.4 mph N/A   Clear
11:35 AM 92.7 °F 95.8 °F 66.7 °F 42% 29.96 in 10.0 mi SSW 9.2 mph 16.1 mph N/A   Clear
11:55 AM 94.3 °F 97.7 °F 66.6 °F 40% 29.95 in 10.0 mi South 9.2 mph - N/A   Clear
12:15 PM 95.5 °F 98.4 °F 65.3 °F 37% 29.94 in 10.0 mi SSW 8.1 mph - N/A   Clear
12:35 PM 95.5 °F 96.9 °F 63.3 °F 34% 29.93 in 10.0 mi SSW 9.2 mph 18.4 mph N/A   Clear
12:55 PM 97.0 °F 98.8 °F 63.7 °F 33% 29.92 in 10.0 mi SSW 10.4 mph 27.6 mph N/A   Clear
1:15 PM 97.2 °F 99.1 °F 63.3 °F 33% 29.91 in 10.0 mi SSE 4.6 mph 20.7 mph N/A   Clear
1:35 PM 98.8 °F 100.8 °F 63.1 °F 31% 29.90 in 10.0 mi South 11.5 mph 17.3 mph N/A   Clear
1:55 PM 98.8 °F 99.7 °F 61.5 °F 29% 29.89 in 10.0 mi South 13.8 mph 18.4 mph N/A   Clear
2:15 PM 99.1 °F 100.3 °F 61.3 °F 29% 29.88 in 10.0 mi SSE 10.4 mph 17.3 mph N/A   Clear
2:35 PM 99.7 °F 99.6 °F 58.6 °F 26% 29.88 in 10.0 mi South 11.5 mph 18.4 mph N/A   Clear
2:55 PM 100.6 °F 101.0 °F 59.7 °F 26% 29.87 in 10.0 mi South 9.2 mph 21.9 mph N/A   Clear
3:15 PM 100.8 °F 99.8 °F 57.2 °F 23% 29.86 in 10.0 mi SSW 3.5 mph - N/A   Clear
3:35 PM 101.1 °F 100.8 °F 58.3 °F 24% 29.85 in 10.0 mi SSW 5.8 mph 17.3 mph N/A   Clear
3:55 PM 101.8 °F 101.4 °F 57.7 °F 23% 29.85 in 10.0 mi South 9.2 mph 20.7 mph N/A   Clear
4:15 PM 101.3 °F 101.1 °F 58.6 °F 24% 29.84 in 10.0 mi South 8.1 mph 20.7 mph N/A   Clear
4:35 PM 100.9 °F 100.5 °F 58.5 °F 24% 29.84 in 10.0 mi SSE 12.7 mph 16.1 mph N/A   Clear
4:55 PM 100.8 °F 100.3 °F 58.3 °F 24% 29.83 in 10.0 mi South 9.2 mph 18.4 mph N/A   Clear
5:15 PM 100.4 °F 99.7 °F 57.4 °F 24% 29.83 in 10.0 mi South 6.9 mph 18.4 mph N/A   Clear
5:35 PM 99.9 °F 99.0 °F 56.8 °F 24% 29.83 in 10.0 mi South 11.5 mph 19.6 mph N/A   Clear
5:55 PM 99.5 °F 98.0 °F 55.9 °F 23% 29.82 in 10.0 mi South 8.1 mph 19.6 mph N/A   Clear
6:15 PM 98.8 °F 97.4 °F 56.1 °F 24% 29.82 in 10.0 mi South 10.4 mph 16.1 mph N/A   Clear
6:35 PM 97.7 °F 96.3 °F 56.1 °F 25% 29.82 in 10.0 mi South 9.2 mph 17.3 mph N/A   Clear
6:55 PM 96.1 °F 94.8 °F 57.4 °F 27% 29.83 in 10.0 mi South 4.6 mph - N/A   Clear
7:15 PM 94.8 °F 93.4 °F 57.2 °F 28% 29.83 in 10.0 mi SSE 5.8 mph - N/A   Clear
7:35 PM 93.2 °F 91.9 °F 57.2 °F 30% 29.84 in 10.0 mi SSE 4.6 mph - N/A   Clear
7:55 PM 91.2 °F 89.9 °F 57.6 °F 32% 29.84 in 10.0 mi SSE 4.6 mph - N/A   Clear
8:15 PM 90.0 °F 88.8 °F 57.7 °F 34% 29.84 in 10.0 mi SSE 3.5 mph - N/A   Clear
8:35 PM 88.3 °F 87.1 °F 57.7 °F 35% 29.84 in 10.0 mi SSE 4.6 mph - N/A   Clear
8:55 PM 87.8 °F 86.7 °F 57.6 °F 36% 29.85 in 10.0 mi SSE 4.6 mph - N/A   Clear
9:15 PM 89.6 °F 89.8 °F 61.5 °F 39% 29.86 in 10.0 mi SSE 11.5 mph 20.7 mph N/A   Clear
9:35 PM 89.1 °F 91.0 °F 65.1 °F 45% 29.88 in 10.0 mi South 10.4 mph 16.1 mph N/A   Clear
9:55 PM 88.2 °F 90.6 °F 66.4 °F 48% 29.89 in 10.0 mi South 9.2 mph - N/A   Clear
10:15 PM 88.0 °F 91.4 °F 67.6 °F 51% 29.90 in 10.0 mi South 10.4 mph 19.6 mph N/A   Clear
10:35 PM 86.9 °F 90.3 °F 68.0 °F 53% 29.90 in 10.0 mi South 11.5 mph 19.6 mph N/A   Clear
10:55 PM 86.4 °F 89.7 °F 68.2 °F 54% 29.91 in 10.0 mi South 11.5 mph 19.6 mph N/A   Clear
11:15 PM 85.3 °F 88.5 °F 68.2 °F 56% 29.91 in 10.0 mi SSE 12.7 mph 17.3 mph N/A   Clear
11:35 PM 84.6 °F 87.9 °F 68.2 °F 58% 29.91 in 10.0 mi SSE 12.7 mph 17.3 mph N/A   Clear
11:55 PM 83.7 °F 86.7 °F 67.8 °F 59% 29.90 in 10.0 mi South 13.8 mph 21.9 mph N/A   Clear